When you browse on this site, cookies collect data to enhance your experience and personalize the content and advertising you see.
Visit our Privacy Policy to learn more. By continuing to use the site, you agree to this use of cookies and data.
  • Em Portugal
  • Lista de países
  • Para 7 dias
  • Temperatura da água
  • Mapas de satélite
  • Mapa do tempo
  • Widgets de tempo
  • user-avatar
    Iniciar Sessão

    Previsão horária em Resht

    Hoje, 20 Novembro, Terça-feira

    Tempo Temperatura Precipitação Vento Pressão Humidade
    00:00 +15°C° 0.1 mm 2 m/s 767 mmHg 92%
    01:00 +15°C° 0 mm 2 m/s 767 mmHg 92%
    02:00 +15°C° 0 mm 2 m/s 767 mmHg 91%
    03:00 +15°C° 0 mm 2 m/s 766 mmHg 91%
    04:00 +14°C° 0 mm 2 m/s 766 mmHg 91%
    05:00 +14°C° 0 mm 2 m/s 766 mmHg 90%
    06:00 +14°C° 0 mm 1 m/s 767 mmHg 89%
    07:00 +15°C° 0 mm 1 m/s 766 mmHg 83%
    08:00 +18°C° 0 mm 1 m/s 766 mmHg 77%
    09:00 +19°C° 0 mm 1 m/s 766 mmHg 68%
    10:00 +19°C° 0 mm 2 m/s 766 mmHg 63%
    11:00 +20°C° 0 mm 2 m/s 765 mmHg 58%
    12:00 +21°C° 0 mm 2 m/s 765 mmHg 53%
    13:00 +21°C° 0 mm 2 m/s 764 mmHg 55%
    14:00 +21°C° 0 mm 3 m/s 764 mmHg 56%
    15:00 +20°C° 0 mm 3 m/s 763 mmHg 58%
    16:00 +19°C° 0 mm 3 m/s 763 mmHg 61%
    17:00 +18°C° 0 mm 3 m/s 763 mmHg 65%
    18:00 +17°C° 0 mm 2 m/s 763 mmHg 69%
    19:00 +17°C° 0 mm 2 m/s 763 mmHg 65%
    20:00 +17°C° 0 mm 2 m/s 762 mmHg 61%
    21:00 +17°C° 0 mm 3 m/s 762 mmHg 58%
    22:00 +17°C° 0 mm 2 m/s 762 mmHg 55%
    23:00 +17°C° 0 mm 2 m/s 762 mmHg 53%

    Amanhã, 21 Novembro, Quarta-feira

    Tempo Temperatura Precipitação Vento Pressão Humidade
    00:00 +17°C° 0 mm 2 m/s 761 mmHg 50%
    01:00 +17°C° 0 mm 2 m/s 761 mmHg 50%
    02:00 +17°C° 0 mm 2 m/s 761 mmHg 50%
    03:00 +17°C° 0 mm 2 m/s 761 mmHg 50%
    04:00 +16°C° 0 mm 2 m/s 761 mmHg 51%
    05:00 +16°C° 0 mm 2 m/s 761 mmHg 52%
    06:00 +16°C° 0 mm 2 m/s 761 mmHg 52%
    07:00 +17°C° 0 mm 2 m/s 761 mmHg 51%
    08:00 +19°C° 0 mm 2 m/s 761 mmHg 50%
    09:00 +20°C° 0 mm 2 m/s 762 mmHg 49%
    10:00 +20°C° 0 mm 2 m/s 761 mmHg 52%
    11:00 +20°C° 0 mm 3 m/s 761 mmHg 56%
    12:00 +21°C° 0 mm 3 m/s 761 mmHg 59%
    13:00 +20°C° 0 mm 3 m/s 761 mmHg 64%
    14:00 +19°C° 0 mm 3 m/s 760 mmHg 68%
    15:00 +18°C° 0 mm 3 m/s 760 mmHg 73%
    16:00 +17°C° 0 mm 3 m/s 761 mmHg 79%
    17:00 +17°C° 0 mm 2 m/s 761 mmHg 84%
    18:00 +16°C° 0 mm 2 m/s 761 mmHg 90%
    19:00 +16°C° 0 mm 2 m/s 761 mmHg 90%
    20:00 +15°C° 0 mm 2 m/s 761 mmHg 90%
    21:00 +15°C° 0 mm 2 m/s 761 mmHg 90%
    22:00 +15°C° 0 mm 2 m/s 761 mmHg 90%
    23:00 +15°C° 0 mm 2 m/s 761 mmHg 90%

    Depois de amanhã, 22 Novembro, Quinta-feira

    Tempo Temperatura Precipitação Vento Pressão Humidade
    00:00 +15°C° 0 mm 2 m/s 761 mmHg 89%
    01:00 +15°C° 0 mm 2 m/s 761 mmHg 88%
    02:00 +14°C° 0 mm 2 m/s 761 mmHg 87%
    03:00 +14°C° 0 mm 2 m/s 761 mmHg 85%
    04:00 +14°C° 0 mm 2 m/s 761 mmHg 82%
    05:00 +14°C° 0 mm 2 m/s 761 mmHg 78%
    06:00 +15°C° 0 mm 2 m/s 761 mmHg 75%
    07:00 +16°C° 0 mm 3 m/s 761 mmHg 68%
    08:00 +18°C° 0 mm 3 m/s 761 mmHg 61%
    09:00 +19°C° 0 mm 3 m/s 762 mmHg 54%
    10:00 +20°C° 0 mm 3 m/s 761 mmHg 52%
    11:00 +21°C° 0 mm 3 m/s 761 mmHg 49%
    12:00 +22°C° 0 mm 3 m/s 760 mmHg 47%
    13:00 +22°C° 0 mm 4 m/s 760 mmHg 50%
    14:00 +22°C° 0 mm 4 m/s 760 mmHg 53%
    15:00 +22°C° 0 mm 4 m/s 759 mmHg 56%
    16:00 +20°C° 0 mm 4 m/s 760 mmHg 60%
    17:00 +19°C° 0 mm 4 m/s 760 mmHg 65%
    18:00 +18°C° 0 mm 3 m/s 760 mmHg 69%
    19:00 +18°C° 0 mm 3 m/s 760 mmHg 68%
    20:00 +18°C° 0 mm 3 m/s 760 mmHg 66%
    21:00 +18°C° 0 mm 3 m/s 761 mmHg 64%
    22:00 +18°C° 0 mm 3 m/s 761 mmHg 64%
    23:00 +18°C° 0 mm 3 m/s 761 mmHg 63%

    23 Novembro, Sexta-feira

    Tempo Temperatura Precipitação Vento Pressão Humidade
    00:00 +18°C° 0 mm 3 m/s 761 mmHg 62%
    01:00 +18°C° 0 mm 3 m/s 760 mmHg 63%
    02:00 +18°C° 0 mm 3 m/s 760 mmHg 63%
    03:00 +18°C° 0 mm 3 m/s 760 mmHg 63%
    04:00 +18°C° 0 mm 2 m/s 761 mmHg 63%
    05:00 +17°C° 0 mm 2 m/s 761 mmHg 64%
    06:00 +17°C° 0 mm 2 m/s 761 mmHg 64%
    07:00 +18°C° 0 mm 2 m/s 761 mmHg 61%
    08:00 +20°C° 0 mm 2 m/s 761 mmHg 57%
    09:00 +22°C° 0 mm 1 m/s 762 mmHg 54%
    10:00 +21°C° 0 mm 2 m/s 761 mmHg 53%
    11:00 +23°C° 0 mm 2 m/s 761 mmHg 52%
    12:00 +24°C° 0 mm 2 m/s 760 mmHg 51%
    13:00 +23°C° 0 mm 2 m/s 760 mmHg 55%
    14:00 +21°C° 0 mm 2 m/s 760 mmHg 60%
    15:00 +21°C° 0 mm 2 m/s 760 mmHg 64%
    16:00 +20°C° 0 mm 2 m/s 760 mmHg 71%
    17:00 +18°C° 0 mm 2 m/s 761 mmHg 79%
    18:00 +17°C° 0 mm 2 m/s 761 mmHg 86%
    19:00 +17°C° 0.2 mm 2 m/s 762 mmHg 88%
    20:00 +17°C° 0.2 mm 3 m/s 763 mmHg 91%
    21:00 +17°C° 0.2 mm 3 m/s 763 mmHg 93%
    22:00 +15°C° 2.4 mm 4 m/s 764 mmHg 94%
    23:00 +15°C° 2.4 mm 5 m/s 764 mmHg 95%

    24 Novembro, Sábado

    Tempo Temperatura Precipitação Vento Pressão Humidade
    00:00 +15°C° 2.4 mm 6 m/s 764 mmHg 96%
    01:00 +14°C° 5.3 mm 6 m/s 765 mmHg 97%
    02:00 +14°C° 5.3 mm 6 m/s 766 mmHg 97%
    03:00 +12°C° 5.3 mm 7 m/s 766 mmHg 97%
    04:00 +11°C° 3.5 mm 6 m/s 767 mmHg 97%
    05:00 +11°C° 3.5 mm 6 m/s 768 mmHg 97%
    06:00 +10°C° 3.5 mm 5 m/s 769 mmHg 97%
    07:00 +9°C° 1.9 mm 5 m/s 771 mmHg 97%
    08:00 +10°C° 1.9 mm 4 m/s 772 mmHg 96%
    09:00 +10°C° 1.9 mm 4 m/s 773 mmHg 96%
    10:00 +10°C° 1.5 mm 4 m/s 773 mmHg 95%
    11:00 +10°C° 1.5 mm 3 m/s 773 mmHg 94%
    12:00 +10°C° 1.5 mm 3 m/s 773 mmHg 94%
    13:00 +10°C° 1 mm 3 m/s 773 mmHg 92%
    14:00 +11°C° 1 mm 3 m/s 773 mmHg 91%
    15:00 +11°C° 1 mm 3 m/s 773 mmHg 90%
    16:00 +11°C° 0.5 mm 3 m/s 773 mmHg 91%
    17:00 +10°C° 0.5 mm 3 m/s 773 mmHg 91%
    18:00 +10°C° 0.5 mm 3 m/s 774 mmHg 92%
    19:00 +10°C° 0.1 mm 3 m/s 774 mmHg 92%
    20:00 +10°C° 0.1 mm 3 m/s 774 mmHg 92%
    21:00 +10°C° 0.1 mm 3 m/s 774 mmHg 93%
    22:00 +10°C° 0 mm 2 m/s 773 mmHg 93%
    23:00 +10°C° 0 mm 2 m/s 773 mmHg 93%

    25 Novembro, Domingo

    Tempo Temperatura Precipitação Vento Pressão Humidade
    00:00 +10°C° 0 mm 2 m/s 773 mmHg 92%
    01:00 +10°C° 0.1 mm 2 m/s 772 mmHg 92%
    02:00 +10°C° 0.1 mm 2 m/s 772 mmHg 92%
    03:00 +11°C° 0.1 mm 1 m/s 771 mmHg 91%
    04:00 +11°C° 0.3 mm 1 m/s 771 mmHg 91%
    05:00 +11°C° 0.3 mm 1 m/s 770 mmHg 90%
    06:00 +11°C° 0.3 mm 1 m/s 770 mmHg 90%
    07:00 +12°C° 0.1 mm 1 m/s 770 mmHg 87%
    08:00 +12°C° 0.1 mm 1 m/s 769 mmHg 84%
    09:00 +13°C° 0.1 mm 1 m/s 768 mmHg 81%
    10:00 +13°C° 0.2 mm 1 m/s 768 mmHg 82%
    11:00 +13°C° 0.2 mm 1 m/s 767 mmHg 83%
    12:00 +13°C° 0.2 mm 1 m/s 766 mmHg 83%
    13:00 +13°C° 0.7 mm 1 m/s 766 mmHg 85%
    14:00 +13°C° 0.7 mm 1 m/s 765 mmHg 87%
    15:00 +13°C° 0.7 mm 1 m/s 765 mmHg 88%
    16:00 +13°C° 0.5 mm 1 m/s 765 mmHg 88%
    17:00 +12°C° 0.5 mm 0 m/s 765 mmHg 88%
    18:00 +12°C° 0.5 mm 0 m/s 765 mmHg 88%
    19:00 +13°C° 0.2 mm 1 m/s 765 mmHg 87%
    20:00 +13°C° 0.2 mm 1 m/s 765 mmHg 87%
    21:00 +13°C° 0.2 mm 1 m/s 765 mmHg 86%
    22:00 +13°C° 0 mm 1 m/s 764 mmHg 86%
    23:00 +13°C° 0 mm 2 m/s 764 mmHg 86%
    Mostrar mais